User: anonymous   Login
Location: Unspecified
(0.0000°N, 0.0000°E)
Time: 13:23:12
(UTC+00:00)
Language:

AO-27 - Orbit

View from above orbital plane
View from above orbital plane
View from above satellite
View from above satellite

Ground track
Ground track

The orbit data is extracted from the following two-line orbital elements,

1 22825U 93061C   21015.78651160 -.00000011  00000-0  13652-4 0  9995
2 22825  98.9241  29.5957 0009374 116.3421 243.8724 14.30103626424165
Epoch (UTC): 15 January 2021 18:52:34
Eccentricity: 0.0009374
inclination: 98.9241°
perigee height: 784 km
apogee height: 798 km
right ascension of ascending node: 29.5957°
argument of perigee: 116.3421°
revolutions per day: 14.30103626
mean anomaly at epoch: 243.8724°
orbit number at epoch: 42416

The dashed part of the orbit path shows where the satellite is in the earth's shadow,  

DLR